Location: Unspecified
(50.7693°N, 0.0000°E)
Time: 14:37:58
(UTC+00:00)

Transit 2A - Pass Details

Date: 26 June 2019
Orbit: 597 x 962 km, 66.7° (Epoch: 24 August)

Event Time Altitude Azimuth Distance (km) Brightness Sun altitude
Rises 05:06:53 0° 315° (NW) 3,570 9.2 9.6°
Reaches altitude 10° 05:10:12 10° 331° (NNW) 2,574 8.7 10.1°
Maximum altitude 05:14:35 21° 18° (NNE) 1,853 8.7 10.7°
Drops below altitude 10° 05:18:41 10° 66° (ENE) 2,395 13.0 11.3°
Sets 05:21:38 0° 83° (E) 3,251 10.9 11.7°
